Robinson, IL

10:59 PM CST on December 10, 2017 (GMT -0600)
Robinson Municipal

Weather History for KRSV - July, 2012

Change the Weather History Date:

Tuesday, July 24, 2012

  Actual Average (KLWV) Record (KLWV)
Temperature  
Mean Temperature 93 °F -  
Max Temperature 104 °F 85 °F 105 °F (2012)
Min Temperature 82 °F 65 °F 56 °F (2014)
Cooling Degree Days 28    
Growing Degree Days 43 (Base 50)    
Moisture  
Dew Point 70 °F    
Average Humidity 52    
Maximum Humidity 70    
Minimum Humidity 27    
Precipitation  
Precipitation 0.00 in - - ()
Sea Level Pressure  
Sea Level Pressure 29.94 in    
Wind  
Wind Speed 9 mph (WNW)    
Max Wind Speed 14 mph    
Max Gust Speed 18 mph    
Visibility 10 miles    
Events Thunderstorm    
Averages and records for this station are not official NWS values.
T = Trace of Precipitation, MM = Missing Value Source: NWS Daily Summary

Daily Weather History Graph

Daily Weather History Graph

Search for Another Location

Airport or City:

Trip Planner

Search our weather history database for the weather conditions in past years. The results will help you decide how hot, cold, wet, or windy it might be!

Date:

Astronomy

Jul. 24, 2012 Rise Set
Actual Time 5:44 AM CDT 8:08 PM CDT
Civil Twilight 5:14 AM CDT 8:39 PM CDT
Nautical Twilight 4:36 AM CDT 9:16 PM CDT
Astronomical Twilight 3:55 AM CDT 9:58 PM CDT
Moon 11:38 AM CDT (7/24) 11:00 PM CDT (7/24)
Length of Visible Light 15h 24m
Length of Day
14h 24m
Waxing Crescent, 32% of the Moon is Illuminated
Jul 24
Waxing Crescent
Jul 26
First Quarter
Aug 1
Full
Aug 9
Last Quarter
Aug 17
New

Hourly Weather History & Observations

Time (CDT) Temp. Heat Index Dew Point Humidity Pressure Visibility Wind Dir Wind Speed Gust Speed Precip Events Conditions
12:15 AM 86.0 °F 91.8 °F 71.6 °F 62% 30.01 in 10.0 mi SSW 10.4 mph 16.1 mph N/A   Clear
12:35 AM 86.0 °F 91.8 °F 71.6 °F 62% 30.00 in 10.0 mi SSW 10.4 mph - N/A   Clear
12:55 AM 84.2 °F 89.6 °F 71.6 °F 66% 30.00 in 10.0 mi SSW 10.4 mph - N/A   Clear
1:15 AM 84.2 °F 89.6 °F 71.6 °F 66% 30.00 in 10.0 mi SSW 11.5 mph - N/A   Clear
1:35 AM 84.2 °F 89.6 °F 71.6 °F 66% 29.99 in 10.0 mi SSW 13.8 mph - N/A   Clear
1:55 AM 84.2 °F 89.6 °F 71.6 °F 66% 29.99 in 10.0 mi SSW 9.2 mph 16.1 mph N/A   Clear
2:15 AM 84.2 °F 90.9 °F 73.4 °F 70% 29.99 in 10.0 mi SSW 9.2 mph - N/A   Clear
2:35 AM 84.2 °F 90.9 °F 73.4 °F 70% 29.98 in 10.0 mi SW 8.1 mph - N/A   Clear
2:55 AM 84.2 °F 90.9 °F 73.4 °F 70% 29.97 in 10.0 mi SSW 10.4 mph - N/A   Clear
3:15 AM 84.2 °F 89.6 °F 71.6 °F 66% 29.97 in 10.0 mi SSW 10.4 mph - N/A   Clear
3:35 AM 84.2 °F 89.6 °F 71.6 °F 66% 29.97 in 10.0 mi SW 11.5 mph - N/A   Clear
3:55 AM 84.2 °F 89.6 °F 71.6 °F 66% 29.97 in 10.0 mi SSW 12.7 mph 18.4 mph N/A   Clear
4:15 AM 84.2 °F 89.6 °F 71.6 °F 66% 29.97 in 10.0 mi SSW 11.5 mph 16.1 mph N/A   Clear
4:35 AM 84.2 °F 89.6 °F 71.6 °F 66% 29.97 in 10.0 mi SW 10.4 mph - N/A   Clear
4:55 AM 82.4 °F 87.2 °F 71.6 °F 70% 29.97 in 10.0 mi SW 10.4 mph - N/A   Clear
5:15 AM 82.4 °F 87.2 °F 71.6 °F 70% 29.97 in 10.0 mi SW 11.5 mph - N/A   Clear
5:36 AM 82.4 °F 87.2 °F 71.6 °F 70% 29.98 in 10.0 mi SW 10.4 mph - N/A   Clear
5:55 AM 82.4 °F 87.2 °F 71.6 °F 70% 29.98 in 10.0 mi SSW 9.2 mph 17.3 mph N/A   Clear
6:15 AM 82.4 °F 87.2 °F 71.6 °F 70% 29.98 in 10.0 mi SSW 10.4 mph - N/A   Clear
6:36 AM 82.4 °F 87.2 °F 71.6 °F 70% 29.98 in 10.0 mi SSW 8.1 mph - N/A   Clear
6:55 AM 82.4 °F 87.2 °F 71.6 °F 70% 29.98 in 10.0 mi SSW 9.2 mph - N/A   Clear
7:16 AM 82.4 °F 87.2 °F 71.6 °F 70% 29.98 in 10.0 mi SSW 13.8 mph - N/A   Clear
7:36 AM 82.4 °F 87.2 °F 71.6 °F 70% 29.98 in 10.0 mi SSW 11.5 mph - N/A   Clear
7:56 AM 84.2 °F 89.6 °F 71.6 °F 66% 29.98 in 10.0 mi SW 12.7 mph 17.3 mph N/A   Clear
8:15 AM 84.2 °F 89.6 °F 71.6 °F 66% 29.98 in 10.0 mi SW 10.4 mph 16.1 mph N/A   Clear
8:36 AM 84.2 °F 89.6 °F 71.6 °F 66% 29.98 in 10.0 mi SW 13.8 mph - N/A   Clear
8:55 AM 87.8 °F 93.8 °F 71.6 °F 58% 29.98 in 10.0 mi WSW 12.7 mph 17.3 mph N/A   Clear
9:15 AM 87.8 °F 93.8 °F 71.6 °F 58% 29.98 in 10.0 mi WSW 10.4 mph - N/A   Clear
9:55 AM 91.4 °F 98.4 °F 71.6 °F 52% 29.98 in 10.0 mi Calm Calm - N/A   Clear
10:15 AM 93.2 °F 98.8 °F 69.8 °F 46% 29.98 in 10.0 mi West 11.5 mph - N/A   Clear
10:37 AM 96.8 °F 103.1 °F 69.8 °F 41% 29.98 in 10.0 mi West 10.4 mph - N/A   Clear
10:55 AM 96.8 °F 103.1 °F 69.8 °F 41% 29.98 in 10.0 mi WNW 9.2 mph - N/A   Clear
11:15 AM 98.6 °F 104.1 °F 68.0 °F 37% 29.98 in 10.0 mi WNW 8.1 mph - N/A   Clear
11:35 AM 98.6 °F 105.5 °F 69.8 °F 39% 29.98 in 10.0 mi NNW 11.5 mph - N/A   Clear
11:55 AM 98.6 °F 105.5 °F 69.8 °F 39% 29.98 in 10.0 mi West 5.8 mph - N/A   Clear
12:15 PM 98.6 °F 105.5 °F 69.8 °F 39% 29.97 in 10.0 mi NNW 9.2 mph - N/A   Clear
12:55 PM 100.4 °F 106.3 °F 68.0 °F 35% 29.96 in 10.0 mi North 4.6 mph - N/A   Clear
1:15 PM 100.4 °F 104.9 °F 66.2 °F 33% 29.95 in 10.0 mi WNW 5.8 mph - N/A   Clear
1:35 PM 100.4 °F 104.9 °F 66.2 °F 33% 29.94 in 10.0 mi WNW 4.6 mph - N/A   Clear
1:55 PM 100.4 °F 104.9 °F 66.2 °F 33% 29.94 in 10.0 mi NNW 4.6 mph - N/A   Clear
2:17 PM 102.2 °F 106.9 °F 66.2 °F 31% 29.93 in 10.0 mi NW 4.6 mph - N/A   Clear
2:35 PM 102.2 °F 106.9 °F 66.2 °F 31% 29.92 in 10.0 mi NNE 5.8 mph - N/A   Clear
2:55 PM 102.2 °F 106.9 °F 66.2 °F 31% 29.90 in 10.0 mi WNW 5.8 mph - N/A   Scattered Clouds
3:16 PM 104.0 °F 108.9 °F 66.2 °F 29% 29.89 in 10.0 mi WNW 6.9 mph - N/A   Mostly Cloudy
3:35 PM 104.0 °F 107.4 °F 64.4 °F 27% 29.89 in 10.0 mi Calm Calm - N/A   Mostly Cloudy
3:55 PM 102.2 °F 106.9 °F 66.2 °F 31% 29.88 in 10.0 mi NNE 3.5 mph - N/A   Scattered Clouds
4:16 PM 100.4 °F 103.6 °F 64.4 °F 31% 29.88 in 10.0 mi WNW 4.6 mph - N/A   Clear
4:36 PM 100.4 °F 104.9 °F 66.2 °F 33% 29.87 in 10.0 mi NNW 8.1 mph - N/A   Scattered Clouds
4:55 PM 102.2 °F 106.9 °F 66.2 °F 31% 29.87 in 10.0 mi North 9.2 mph - N/A   Scattered Clouds
5:15 PM 102.2 °F 108.4 °F 68.0 °F 33% 29.87 in 10.0 mi NW 6.9 mph - N/A   Scattered Clouds
5:35 PM 102.2 °F 106.9 °F 66.2 °F 31% 29.87 in 10.0 mi NW 8.1 mph - N/A   Scattered Clouds
5:55 PM 102.2 °F 108.4 °F 68.0 °F 33% 29.87 in 10.0 mi WNW 6.9 mph - N/A   Mostly Cloudy
6:15 PM 100.4 °F 104.9 °F 66.2 °F 33% 29.87 in 10.0 mi NNW 8.1 mph - N/A   Scattered Clouds
6:35 PM 98.6 °F 102.8 °F 66.2 °F 35% 29.87 in 10.0 mi NNW 10.4 mph - N/A   Clear
6:55 PM 96.8 °F 105.1 °F 71.6 °F 44% 29.87 in 10.0 mi North 10.4 mph - N/A   Clear
7:15 PM 95.0 °F 103.2 °F 71.6 °F 47% 29.88 in 10.0 mi North 6.9 mph - N/A   Scattered Clouds
7:35 PM 93.2 °F 102.4 °F 73.4 °F 52% 29.88 in 10.0 mi North 5.8 mph - N/A   Scattered Clouds
7:55 PM 91.4 °F 100.1 °F 73.4 °F 55% 29.89 in 10.0 mi North 6.9 mph - N/A   Scattered Clouds
8:15 PM 91.4 °F 98.4 °F 71.6 °F 52% 29.88 in 10.0 mi North 6.9 mph - N/A   Clear
8:35 PM 89.6 °F 96.2 °F 71.6 °F 55% 29.88 in 10.0 mi NNE 5.8 mph - N/A   Clear
8:55 PM 87.8 °F 93.8 °F 71.6 °F 58% 29.89 in 10.0 mi NNE 4.6 mph - N/A   Clear
9:15 PM 87.8 °F 93.8 °F 71.6 °F 58% 29.89 in 10.0 mi North 4.6 mph - N/A   Clear
9:35 PM 87.8 °F 93.8 °F 71.6 °F 58% 29.90 in 10.0 mi North 5.8 mph - N/A   Scattered Clouds
9:55 PM 87.8 °F 92.6 °F 69.8 °F 55% 29.91 in 10.0 mi North 6.9 mph - N/A   Mostly Cloudy
10:15 PM 87.8 °F 92.6 °F 69.8 °F 55% 29.92 in 10.0 mi North 5.8 mph - N/A   Scattered Clouds
10:35 PM 86.0 °F 90.4 °F 69.8 °F 58% 29.92 in 10.0 mi North 5.8 mph - N/A   Scattered Clouds
11:15 PM 86.0 °F 90.4 °F 69.8 °F 58% 29.91 in 10.0 mi NE 6.9 mph - N/A Thunderstorm Scattered Clouds
11:35 PM 84.2 °F 88.4 °F 69.8 °F 62% 29.92 in 10.0 mi NE 5.8 mph - N/A Thunderstorm Clear
11:55 PM 84.2 °F 88.4 °F 69.8 °F 62% 29.92 in 10.0 mi ENE 9.2 mph - N/A   Clear